Time,TemperatureF,DewpointF,PressureIn,WindDirection,WindDirectionDegrees,WindSpeedMPH,WindSpeedGustMPH,Humidity,HourlyPrecipIn,Conditions,Clouds,dailyrainin,SoftwareType,DateUTC
2013-10-02 00:00:00,67.1,34.6,30.11,NW,317,0.0,6.0,30,0.00,,,0.00,Wunderground v.1.15,2013-10-02 07:00:00,
2013-10-02 00:05:00,67.3,33.9,30.11,NW,306,0.0,6.0,29,0.00,,,0.00,Wunderground v.1.15,2013-10-02 07:05:00,
2013-10-02 00:15:00,68.2,32.9,30.11,NNW,341,1.0,10.0,27,0.00,,,0.00,Wunderground v.1.15,2013-10-02 07:15:00,
2013-10-02 00:20:00,68.7,32.4,30.11,NW,314,3.0,3.0,26,0.00,,,0.00,Wunderground v.1.15,2013-10-02 07:20:00,
2013-10-02 00:25:00,68.6,32.3,30.11,NW,321,2.0,5.0,26,0.00,,,0.00,Wunderground v.1.15,2013-10-02 07:25:00,
2013-10-02 00:35:00,67.7,32.5,30.11,West,267,0.0,10.0,27,0.00,,,0.00,Wunderground v.1.15,2013-10-02 07:35:00,
2013-10-02 00:45:00,68.1,28.9,30.10,NW,317,2.0,10.0,23,0.00,,,0.00,Wunderground v.1.15,2013-10-02 07:45:00,
2013-10-02 00:50:00,69.0,28.5,30.10,WNW,296,5.0,5.0,22,0.00,,,0.00,Wunderground v.1.15,2013-10-02 07:50:00,
2013-10-02 01:00:00,69.4,27.7,30.10,NNW,336,4.0,10.0,21,0.00,,,0.00,Wunderground v.1.15,2013-10-02 08:00:00,
2013-10-02 01:05:00,69.7,28.0,30.10,NNW,327,7.0,19.0,21,0.00,,,0.00,Wunderground v.1.15,2013-10-02 08:05:00,
2013-10-02 01:15:00,69.7,28.0,30.10,NW,316,6.0,19.0,21,0.00,,,0.00,Wunderground v.1.15,2013-10-02 08:15:00,
2013-10-02 01:20:00,69.9,27.0,30.10,NW,313,7.0,7.0,20,0.00,,,0.00,Wunderground v.1.15,2013-10-02 08:20:00,
2013-10-02 01:30:00,69.9,27.0,30.10,NNW,331,7.0,19.0,20,0.00,,,0.00,Wunderground v.1.15,2013-10-02 08:30:00,
2013-10-02 01:35:00,69.8,26.9,30.10,NNW,338,7.0,19.0,20,0.00,,,0.00,Wunderground v.1.15,2013-10-02 08:35:00,
2013-10-02 01:40:00,69.6,27.9,30.10,NNW,332,5.0,5.0,21,0.00,,,0.00,Wunderground v.1.15,2013-10-02 08:40:00,
2013-10-02 01:50:00,69.3,27.7,30.10,NW,325,3.0,3.0,21,0.00,,,0.00,Wunderground v.1.15,2013-10-02 08:50:00,
2013-10-02 02:00:00,69.4,26.6,30.10,NNW,335,2.0,18.0,20,0.00,,,0.00,Wunderground v.1.15,2013-10-02 09:00:00,
2013-10-02 02:05:00,69.6,25.5,30.09,WNW,296,3.0,18.0,19,0.00,,,0.00,Wunderground v.1.15,2013-10-02 09:05:00,
2013-10-02 02:15:00,69.6,22.8,30.09,NNW,331,4.0,5.0,17,0.00,,,0.00,Wunderground v.1.15,2013-10-02 09:15:00,
2013-10-02 02:20:00,69.8,21.5,30.09,NNW,332,6.0,6.0,16,0.00,,,0.00,Wunderground v.1.15,2013-10-02 09:20:00,
2013-10-02 02:30:00,70.1,18.6,30.08,NW,323,9.0,9.0,14,0.00,,,0.00,Wunderground v.1.15,2013-10-02 09:30:00,
2013-10-02 02:35:00,70.2,18.7,30.09,NNW,339,10.0,12.0,14,0.00,,,0.00,Wunderground v.1.15,2013-10-02 09:35:00,
2013-10-02 02:40:00,70.2,18.7,30.08,North,352,11.0,20.0,14,0.00,,,0.00,Wunderground v.1.15,2013-10-02 09:40:00,
2013-10-02 02:45:00,69.9,20.1,30.08,NNW,346,12.0,20.0,15,0.00,,,0.00,Wunderground v.1.15,2013-10-02 09:45:00,
2013-10-02 02:50:00,69.7,18.3,30.08,NW,317,11.0,11.0,14,0.00,,,0.00,Wunderground v.1.15,2013-10-02 09:50:00,
2013-10-02 03:00:00,69.3,18.0,30.08,NW,304,10.0,21.0,14,0.00,,,0.00,Wunderground v.1.15,2013-10-02 10:00:00,
2013-10-02 03:05:00,69.4,16.4,30.08,NW,314,10.0,23.0,13,0.00,,,0.00,Wunderground v.1.15,2013-10-02 10:05:00,
2013-10-02 03:15:00,69.4,14.5,30.08,WNW,300,11.0,11.0,12,0.00,,,0.00,Wunderground v.1.15,2013-10-02 10:15:00,
2013-10-02 03:20:00,69.2,12.4,30.08,NW,323,10.0,23.0,11,0.00,,,0.00,Wunderground v.1.15,2013-10-02 10:20:00,
2013-10-02 03:30:00,69.5,8.1,30.08,NW,325,10.0,23.0,9,0.00,,,0.00,Wunderground v.1.15,2013-10-02 10:30:00,
2013-10-02 03:35:00,69.7,8.3,30.08,NW,310,11.0,23.0,9,0.00,,,0.00,Wunderground v.1.15,2013-10-02 10:35:00,
2013-10-02 03:45:00,69.7,8.3,30.08,NW,316,11.0,23.0,9,0.00,,,0.00,Wunderground v.1.15,2013-10-02 10:45:00,
2013-10-02 03:50:00,69.7,8.3,30.08,WNW,294,9.0,9.0,9,0.00,,,0.00,Wunderground v.1.15,2013-10-02 10:50:00,
2013-10-02 03:55:00,69.7,8.3,30.08,NW,312,9.0,22.0,9,0.00,,,0.00,Wunderground v.1.15,2013-10-02 10:55:00,
2013-10-02 04:05:00,69.9,5.8,30.08,WNW,289,10.0,22.0,8,0.00,,,0.00,Wunderground v.1.15,2013-10-02 11:05:00,
2013-10-02 04:10:00,69.9,5.8,30.08,NW,320,7.0,22.0,8,0.00,,,0.00,Wunderground v.1.15,2013-10-02 11:10:00,
2013-10-02 04:20:00,69.8,5.7,30.08,NNW,333,4.0,20.0,8,0.00,,,0.00,Wunderground v.1.15,2013-10-02 11:20:00,
2013-10-02 04:30:00,69.7,2.8,30.09,NNE,13,3.0,20.0,7,0.00,,,0.00,Wunderground v.1.15,2013-10-02 11:30:00,
2013-10-02 04:35:00,69.3,5.4,30.09,North,354,1.0,20.0,8,0.00,,,0.00,Wunderground v.1.15,2013-10-02 11:35:00,
2013-10-02 04:45:00,69.6,2.7,30.09,NW,321,4.0,20.0,7,0.00,,,0.00,Wunderground v.1.15,2013-10-02 11:45:00,
2013-10-02 04:50:00,69.6,2.7,30.08,WNW,296,6.0,6.0,7,0.00,,,0.00,Wunderground v.1.15,2013-10-02 11:50:00,
2013-10-02 05:00:00,69.5,2.6,30.09,NW,316,5.0,5.0,7,0.00,,,0.00,Wunderground v.1.15,2013-10-02 12:00:00,
2013-10-02 05:05:00,69.3,2.5,30.09,North,350,2.0,13.0,7,0.00,,,0.00,Wunderground v.1.15,2013-10-02 12:05:00,
2013-10-02 05:10:00,68.9,5.1,30.09,NNE,13,0.0,13.0,8,0.00,,,0.00,Wunderground v.1.15,2013-10-02 12:10:00,
2013-10-02 05:20:00,68.4,4.7,30.09,NNE,20,1.0,1.0,8,0.00,,,0.00,Wunderground v.1.15,2013-10-02 12:20:00,
2013-10-02 05:25:00,68.4,7.3,30.09,NNE,25,2.0,2.0,9,0.00,,,0.00,Wunderground v.1.15,2013-10-02 12:25:00,
2013-10-02 05:30:00,68.3,7.2,30.09,North,351,2.0,17.0,9,0.00,,,0.00,Wunderground v.1.15,2013-10-02 12:30:00,
2013-10-02 05:35:00,68.0,7.0,30.09,North,356,1.0,17.0,9,0.00,,,0.00,Wunderground v.1.15,2013-10-02 12:35:00,
2013-10-02 05:45:00,67.3,8.8,30.09,NNE,13,1.0,10.0,10,0.00,,,0.00,Wunderground v.1.15,2013-10-02 12:45:00,
2013-10-02 05:50:00,67.2,8.7,30.09,NNW,337,1.0,1.0,10,0.00,,,0.00,Wunderground v.1.15,2013-10-02 12:50:00,
2013-10-02 06:00:00,67.8,11.3,30.09,North,6,1.0,1.0,11,0.00,,,0.00,Wunderground v.1.15,2013-10-02 13:00:00,
2013-10-02 06:05:00,67.6,11.1,30.09,WNW,299,1.0,10.0,11,0.00,,,0.00,Wunderground v.1.15,2013-10-02 13:05:00,
2013-10-02 06:15:00,68.2,11.6,30.09,NW,323,3.0,10.0,11,0.00,,,0.00,Wunderground v.1.15,2013-10-02 13:15:00,
2013-10-02 06:20:00,68.5,13.8,30.09,NW,314,6.0,10.0,12,0.00,,,0.00,Wunderground v.1.15,2013-10-02 13:20:00,
2013-10-02 06:30:00,68.7,12.0,30.09,NW,312,8.0,8.0,11,0.00,,,0.00,Wunderground v.1.15,2013-10-02 13:30:00,
2013-10-02 06:40:00,68.0,9.3,30.09,NNW,335,6.0,16.0,10,0.00,,,0.00,Wunderground v.1.15,2013-10-02 13:40:00,
2013-10-02 06:45:00,67.8,9.2,30.09,NNW,346,6.0,16.0,10,0.00,,,0.00,Wunderground v.1.15,2013-10-02 13:45:00,
2013-10-02 06:50:00,67.7,11.2,30.10,NNW,331,7.0,7.0,11,0.00,,,0.00,Wunderground v.1.15,2013-10-02 13:50:00,
2013-10-02 07:00:00,67.4,11.0,30.10,NNW,331,3.0,16.0,11,0.00,,,0.00,Wunderground v.1.15,2013-10-02 14:00:00,
2013-10-02 07:05:00,67.4,13.0,30.10,North,7,3.0,16.0,12,0.00,,,0.00,Wunderground v.1.15,2013-10-02 14:05:00,
2013-10-02 07:15:00,67.3,14.7,30.10,NNW,346,2.0,16.0,13,0.00,,,0.00,Wunderground v.1.15,2013-10-02 14:15:00,
2013-10-02 07:20:00,67.3,16.4,30.11,North,354,2.0,14.0,14,0.00,,,0.00,Wunderground v.1.15,2013-10-02 14:20:00,
2013-10-02 07:30:00,67.0,17.8,30.11,NNE,13,2.0,14.0,15,0.00,,,0.00,Wunderground v.1.15,2013-10-02 14:30:00,
2013-10-02 07:35:00,67.1,19.4,30.11,NNW,336,2.0,14.0,16,0.00,,,0.00,Wunderground v.1.15,2013-10-02 14:35:00,
2013-10-02 07:45:00,67.6,19.8,30.11,NNW,332,5.0,11.0,16,0.00,,,0.00,Wunderground v.1.15,2013-10-02 14:45:00,
2013-10-02 07:50:00,67.7,19.8,30.11,North,4,4.0,4.0,16,0.00,,,0.00,Wunderground v.1.15,2013-10-02 14:50:00,
2013-10-02 08:00:00,68.1,20.2,30.12,NNW,341,4.0,11.0,16,0.00,,,0.00,Wunderground v.1.15,2013-10-02 15:00:00,
2013-10-02 08:05:00,68.5,20.5,30.12,NW,323,5.0,14.0,16,0.00,,,0.00,Wunderground v.1.15,2013-10-02 15:05:00,
2013-10-02 08:10:00,68.6,20.6,30.12,NNW,347,7.0,11.0,16,0.00,,,0.00,Wunderground v.1.15,2013-10-02 15:10:00,
2013-10-02 08:15:00,68.8,20.7,30.11,NNE,15,7.0,11.0,16,0.00,,,0.00,Wunderground v.1.15,2013-10-02 15:15:00,
2013-10-02 08:20:00,69.0,22.3,30.11,North,4,5.0,5.0,17,0.00,,,0.00,Wunderground v.1.15,2013-10-02 15:20:00,
2013-10-02 08:30:00,69.2,23.9,30.11,NNE,21,3.0,3.0,18,0.00,,,0.00,Wunderground v.1.15,2013-10-02 15:30:00,
2013-10-02 08:35:00,69.5,24.1,30.12,NNE,14,3.0,15.0,18,0.00,,,0.00,Wunderground v.1.15,2013-10-02 15:35:00,
2013-10-02 08:45:00,70.2,23.3,30.11,NNW,348,5.0,5.0,17,0.00,,,0.00,Wunderground v.1.15,2013-10-02 15:45:00,
2013-10-02 08:50:00,70.6,25.0,30.12,North,4,4.0,15.0,18,0.00,,,0.00,Wunderground v.1.15,2013-10-02 15:50:00,
2013-10-02 09:00:00,70.9,25.2,30.12,NNE,21,7.0,7.0,18,0.00,,,0.00,Wunderground v.1.15,2013-10-02 16:00:00,
2013-10-02 09:05:00,71.0,25.3,30.12,NNW,332,8.0,15.0,18,0.00,,,0.00,Wunderground v.1.15,2013-10-02 16:05:00,
2013-10-02 09:15:00,70.9,26.5,30.12,NNW,337,10.0,18.0,19,0.00,,,0.00,Wunderground v.1.15,2013-10-02 16:15:00,
2013-10-02 09:20:00,71.3,28.1,30.12,NNW,329,8.0,18.0,20,0.00,,,0.00,Wunderground v.1.15,2013-10-02 16:20:00,
2013-10-02 09:30:00,71.7,27.2,30.12,NW,323,10.0,18.0,19,0.00,,,0.00,Wunderground v.1.15,2013-10-02 16:30:00,
2013-10-02 09:35:00,71.2,26.8,30.12,NNW,335,14.0,18.0,19,0.00,,,0.00,Wunderground v.1.15,2013-10-02 16:35:00,
2013-10-02 09:45:00,71.7,27.2,30.12,NNW,342,14.0,18.0,19,0.00,,,0.00,Wunderground v.1.15,2013-10-02 16:45:00,
2013-10-02 09:55:00,71.8,28.5,30.12,NW,316,12.0,24.0,20,0.00,,,0.00,Wunderground v.1.15,2013-10-02 16:55:00,
2013-10-02 10:00:00,71.9,29.8,30.13,NNW,338,11.0,11.0,21,0.00,,,0.00,Wunderground v.1.15,2013-10-02 17:00:00,
2013-10-02 10:05:00,72.0,29.9,30.13,NNW,332,10.0,24.0,21,0.00,,,0.00,Wunderground v.1.15,2013-10-02 17:05:00,
2013-10-02 10:15:00,72.2,30.1,30.13,NW,322,11.0,15.0,21,0.00,,,0.00,Wunderground v.1.15,2013-10-02 17:15:00,
2013-10-02 10:20:00,72.6,30.4,30.13,NNW,339,14.0,24.0,21,0.00,,,0.00,Wunderground v.1.15,2013-10-02 17:20:00,
2013-10-02 10:30:00,72.5,31.5,30.13,NW,318,15.0,15.0,22,0.00,,,0.00,Wunderground v.1.15,2013-10-02 17:30:00,
2013-10-02 10:35:00,72.3,32.4,30.13,NW,324,15.0,19.0,23,0.00,,,0.00,Wunderground v.1.15,2013-10-02 17:35:00,
2013-10-02 10:45:00,72.4,32.5,30.13,NNW,327,14.0,24.0,23,0.00,,,0.00,Wunderground v.1.15,2013-10-02 17:45:00,
2013-10-02 10:50:00,72.1,34.3,30.14,NNW,332,14.0,14.0,25,0.00,,,0.00,Wunderground v.1.15,2013-10-02 17:50:00,
2013-10-02 11:00:00,72.4,34.6,30.13,NNE,15,12.0,12.0,25,0.00,,,0.00,Wunderground v.1.15,2013-10-02 18:00:00,
2013-10-02 11:10:00,73.5,34.5,30.13,NNW,338,8.0,29.0,24,0.00,,,0.00,Wunderground v.1.15,2013-10-02 18:10:00,
2013-10-02 11:15:00,73.6,34.6,30.12,NNW,341,7.0,29.0,24,0.00,,,0.00,Wunderground v.1.15,2013-10-02 18:15:00,
2013-10-02 11:20:00,73.8,35.8,30.12,NNW,342,8.0,25.0,25,0.00,,,0.00,Wunderground v.1.15,2013-10-02 18:20:00,
2013-10-02 11:30:00,73.9,35.8,30.11,NW,321,11.0,25.0,25,0.00,,,0.00,Wunderground v.1.15,2013-10-02 18:30:00,
2013-10-02 11:35:00,73.9,35.8,30.11,WNW,300,12.0,25.0,25,0.00,,,0.00,Wunderground v.1.15,2013-10-02 18:35:00,
2013-10-02 11:45:00,74.3,36.2,30.12,North,356,10.0,25.0,25,0.00,,,0.00,Wunderground v.1.15,2013-10-02 18:45:00,
2013-10-02 11:50:00,74.5,37.3,30.11,NW,304,12.0,12.0,26,0.00,,,0.00,Wunderground v.1.15,2013-10-02 18:50:00,
2013-10-02 11:55:00,74.5,37.3,30.12,NNW,343,12.0,22.0,26,0.00,,,0.00,Wunderground v.1.15,2013-10-02 18:55:00,
2013-10-02 12:00:00,74.6,38.4,30.11,NNW,327,13.0,22.0,27,0.00,,,0.00,Wunderground v.1.15,2013-10-02 19:00:00,
2013-10-02 12:10:00,75.1,38.8,30.11,NW,310,11.0,11.0,27,0.00,,,0.00,Wunderground v.1.15,2013-10-02 19:10:00,
2013-10-02 12:15:00,74.5,38.3,30.11,NW,312,13.0,17.0,27,0.00,,,0.00,Wunderground v.1.15,2013-10-02 19:15:00,
2013-10-02 12:20:00,74.5,39.2,30.10,NNW,334,17.0,17.0,28,0.00,,,0.00,Wunderground v.1.15,2013-10-02 19:20:00,
2013-10-02 12:30:00,74.4,39.2,30.11,NW,308,15.0,15.0,28,0.00,,,0.00,Wunderground v.1.15,2013-10-02 19:30:00,
2013-10-02 12:35:00,74.4,39.2,30.10,NNW,333,14.0,23.0,28,0.00,,,0.00,Wunderground v.1.15,2013-10-02 19:35:00,
2013-10-02 12:45:00,74.6,39.3,30.10,NNW,338,8.0,23.0,28,0.00,,,0.00,Wunderground v.1.15,2013-10-02 19:45:00,
2013-10-02 12:50:00,75.1,39.8,30.10,NW,313,5.0,5.0,28,0.00,,,0.00,Wunderground v.1.15,2013-10-02 19:50:00,
2013-10-02 13:00:00,76.3,38.9,30.09,NW,325,9.0,9.0,26,0.00,,,0.00,Wunderground v.1.15,2013-10-02 20:00:00,
2013-10-02 13:05:00,76.4,39.0,30.09,NNW,342,9.0,15.0,26,0.00,,,0.00,Wunderground v.1.15,2013-10-02 20:05:00,
2013-10-02 13:15:00,76.5,39.0,30.08,NNW,338,12.0,25.0,26,0.00,,,0.00,Wunderground v.1.15,2013-10-02 20:15:00,
2013-10-02 13:20:00,75.5,39.2,30.09,NNW,332,14.0,23.0,27,0.00,,,0.00,Wunderground v.1.15,2013-10-02 20:20:00,
2013-10-02 13:25:00,75.2,39.8,30.08,NNW,327,15.0,23.0,28,0.00,,,0.00,Wunderground v.1.15,2013-10-02 20:25:00,
2013-10-02 13:35:00,75.2,39.8,30.08,NW,325,14.0,23.0,28,0.00,,,0.00,Wunderground v.1.15,2013-10-02 20:35:00,
2013-10-02 13:45:00,76.4,39.9,30.08,NNW,339,11.0,23.0,27,0.00,,,0.00,Wunderground v.1.15,2013-10-02 20:45:00,
2013-10-02 13:50:00,77.0,40.4,30.08,NW,319,8.0,25.0,27,0.00,,,0.00,Wunderground v.1.15,2013-10-02 20:50:00,
2013-10-02 14:00:00,76.5,38.0,30.07,NW,314,11.0,25.0,25,0.00,,,0.00,Wunderground v.1.15,2013-10-02 21:00:00,
2013-10-02 14:10:00,77.0,38.5,30.08,NNW,331,11.0,25.0,25,0.00,,,0.00,Wunderground v.1.15,2013-10-02 21:10:00,
2013-10-02 14:15:00,77.3,38.7,30.07,NW,308,10.0,25.0,25,0.00,,,0.00,Wunderground v.1.15,2013-10-02 21:15:00,
2013-10-02 14:20:00,77.2,37.6,30.07,WNW,284,11.0,11.0,24,0.00,,,0.00,Wunderground v.1.15,2013-10-02 21:20:00,
2013-10-02 14:30:00,77.5,37.8,30.07,NW,318,12.0,12.0,24,0.00,,,0.00,Wunderground v.1.15,2013-10-02 21:30:00,
2013-10-02 14:35:00,76.9,37.3,30.07,NW,312,14.0,17.0,24,0.00,,,0.00,Wunderground v.1.15,2013-10-02 21:35:00,
2013-10-02 14:40:00,76.9,37.3,30.06,NW,313,15.0,15.0,24,0.00,,,0.00,Wunderground v.1.15,2013-10-02 21:40:00,
2013-10-02 14:50:00,77.3,37.7,30.06,NNW,328,13.0,13.0,24,0.00,,,0.00,Wunderground v.1.15,2013-10-02 21:50:00,
2013-10-02 15:00:00,77.5,37.8,30.07,NW,325,12.0,12.0,24,0.00,,,0.00,Wunderground v.1.15,2013-10-02 22:00:00,
2013-10-02 15:05:00,77.0,36.3,30.06,WNW,300,14.0,14.0,23,0.00,,,0.00,Wunderground v.1.15,2013-10-02 22:05:00,
2013-10-02 15:15:00,77.7,38.0,30.06,WNW,300,11.0,25.0,24,0.00,,,0.00,Wunderground v.1.15,2013-10-02 22:15:00,
2013-10-02 15:20:00,77.6,37.9,30.06,NW,326,10.0,25.0,24,0.00,,,0.00,Wunderground v.1.15,2013-10-02 22:20:00,
2013-10-02 15:30:00,78.0,38.3,30.05,West,268,8.0,25.0,24,0.00,,,0.00,Wunderground v.1.15,2013-10-02 22:30:00,
2013-10-02 15:35:00,78.0,38.3,30.06,WSW,249,8.0,25.0,24,0.00,,,0.00,Wunderground v.1.15,2013-10-02 22:35:00,
2013-10-02 15:45:00,77.6,37.9,30.05,NW,310,9.0,25.0,24,0.00,,,0.00,Wunderground v.1.15,2013-10-02 22:45:00,
2013-10-02 15:55:00,77.4,35.6,30.05,NW,304,11.0,20.0,22,0.00,,,0.00,Wunderground v.1.15,2013-10-02 22:55:00,
2013-10-02 16:00:00,77.2,35.4,30.04,WNW,291,11.0,11.0,22,0.00,,,0.00,Wunderground v.1.15,2013-10-02 23:00:00,
2013-10-02 16:05:00,77.5,35.6,30.05,WNW,300,9.0,19.0,22,0.00,,,0.00,Wunderground v.1.15,2013-10-02 23:05:00,
2013-10-02 16:15:00,76.8,35.1,30.04,WNW,298,12.0,12.0,22,0.00,,,0.00,Wunderground v.1.15,2013-10-02 23:15:00,
2013-10-02 16:20:00,77.1,35.3,30.05,NW,323,10.0,10.0,22,0.00,,,0.00,Wunderground v.1.15,2013-10-02 23:20:00,
2013-10-02 16:30:00,76.9,36.3,30.04,NNW,329,10.0,19.0,23,0.00,,,0.00,Wunderground v.1.15,2013-10-02 23:30:00,
2013-10-02 16:35:00,76.5,35.9,30.05,NW,312,12.0,19.0,23,0.00,,,0.00,Wunderground v.1.15,2013-10-02 23:35:00,
2013-10-02 16:45:00,76.6,36.0,30.04,NNW,343,10.0,19.0,23,0.00,,,0.00,Wunderground v.1.15,2013-10-02 23:45:00,
2013-10-02 16:50:00,76.6,36.0,30.05,NW,319,10.0,10.0,23,0.00,,,0.00,Wunderground v.1.15,2013-10-02 23:50:00,
2013-10-02 17:00:00,76.0,35.5,30.04,NNW,344,11.0,11.0,23,0.00,,,0.00,Wunderground v.1.15,2013-10-03 00:00:00,
2013-10-02 17:05:00,75.8,36.4,30.05,NNW,327,12.0,12.0,24,0.00,,,0.00,Wunderground v.1.15,2013-10-03 00:05:00,
2013-10-02 17:15:00,75.5,37.2,30.04,NNW,331,10.0,17.0,25,0.00,,,0.00,Wunderground v.1.15,2013-10-03 00:15:00,
2013-10-02 17:20:00,74.8,37.6,30.05,NNW,333,12.0,21.0,26,0.00,,,0.00,Wunderground v.1.15,2013-10-03 00:20:00,
2013-10-02 17:30:00,74.2,37.1,30.05,North,355,11.0,11.0,26,0.00,,,0.00,Wunderground v.1.15,2013-10-03 00:30:00,
2013-10-02 17:40:00,73.9,37.8,30.04,WNW,302,10.0,21.0,27,0.00,,,0.00,Wunderground v.1.15,2013-10-03 00:40:00,
2013-10-02 17:45:00,73.5,38.4,30.05,WNW,301,11.0,21.0,28,0.00,,,0.00,Wunderground v.1.15,2013-10-03 00:45:00,
2013-10-02 17:50:00,73.4,37.4,30.04,NW,322,11.0,24.0,27,0.00,,,0.00,Wunderground v.1.15,2013-10-03 00:50:00,
2013-10-02 17:55:00,73.3,37.3,30.05,NW,314,12.0,24.0,27,0.00,,,0.00,Wunderground v.1.15,2013-10-03 00:55:00,
2013-10-02 18:05:00,72.8,38.7,30.04,NNW,328,12.0,24.0,29,0.00,,,0.00,Wunderground v.1.15,2013-10-03 01:05:00,
2013-10-02 18:15:00,72.3,38.2,30.04,NW,317,11.0,14.0,29,0.00,,,0.00,Wunderground v.1.15,2013-10-03 01:15:00,
2013-10-02 18:20:00,72.0,38.9,30.04,NW,317,12.0,12.0,30,0.00,,,0.00,Wunderground v.1.15,2013-10-03 01:20:00,
2013-10-02 18:30:00,71.6,38.5,30.04,WNW,295,10.0,10.0,30,0.00,,,0.00,Wunderground v.1.15,2013-10-03 01:30:00,
2013-10-02 18:40:00,71.5,37.6,30.04,WNW,300,8.0,8.0,29,0.00,,,0.00,Wunderground v.1.15,2013-10-03 01:40:00,
2013-10-02 18:45:00,71.6,37.6,30.04,NW,312,9.0,9.0,29,0.00,,,0.00,Wunderground v.1.15,2013-10-03 01:45:00,
2013-10-02 18:55:00,71.4,38.3,30.04,WNW,302,10.0,23.0,30,0.00,,,0.00,Wunderground v.1.15,2013-10-03 01:55:00,
2013-10-02 19:00:00,71.0,38.8,30.04,WNW,300,11.0,23.0,31,0.00,,,0.00,Wunderground v.1.15,2013-10-03 02:00:00,
2013-10-02 19:10:00,70.7,37.7,30.05,NW,306,11.0,23.0,30,0.00,,,0.00,Wunderground v.1.15,2013-10-03 02:10:00,
2013-10-02 19:15:00,70.7,37.7,30.05,WNW,294,11.0,23.0,30,0.00,,,0.00,Wunderground v.1.15,2013-10-03 02:15:00,
2013-10-02 19:20:00,70.6,37.6,30.05,NW,307,9.0,9.0,30,0.00,,,0.00,Wunderground v.1.15,2013-10-03 02:20:00,
2013-10-02 19:25:00,70.8,37.0,30.05,NW,321,10.0,10.0,29,0.00,,,0.00,Wunderground v.1.15,2013-10-03 02:25:00,
2013-10-02 19:35:00,70.4,36.6,30.05,NNW,339,9.0,21.0,29,0.00,,,0.00,Wunderground v.1.15,2013-10-03 02:35:00,
2013-10-02 19:45:00,70.2,35.5,30.05,NW,325,11.0,21.0,28,0.00,,,0.00,Wunderground v.1.15,2013-10-03 02:45:00,
2013-10-02 19:50:00,70.0,35.4,30.05,WNW,301,11.0,11.0,28,0.00,,,0.00,Wunderground v.1.15,2013-10-03 02:50:00,
2013-10-02 19:55:00,70.0,34.5,30.05,NW,311,11.0,14.0,27,0.00,,,0.00,Wunderground v.1.15,2013-10-03 02:55:00,
2013-10-02 20:05:00,69.8,33.3,30.05,NW,314,11.0,23.0,26,0.00,,,0.00,Wunderground v.1.15,2013-10-03 03:05:00,
2013-10-02 20:15:00,69.8,34.3,30.05,NW,321,11.0,23.0,27,0.00,,,0.00,Wunderground v.1.15,2013-10-03 03:15:00,
2013-10-02 20:20:00,69.6,33.2,30.05,NNW,337,12.0,12.0,26,0.00,,,0.00,Wunderground v.1.15,2013-10-03 03:20:00,
2013-10-02 20:25:00,69.7,32.3,30.05,NW,310,11.0,21.0,25,0.00,,,0.00,Wunderground v.1.15,2013-10-03 03:25:00,
2013-10-02 20:35:00,69.3,31.9,30.05,WNW,291,12.0,21.0,25,0.00,,,0.00,Wunderground v.1.15,2013-10-03 03:35:00,
2013-10-02 20:40:00,69.4,32.0,30.05,NW,322,10.0,10.0,25,0.00,,,0.00,Wunderground v.1.15,2013-10-03 03:40:00,
2013-10-02 20:45:00,69.3,31.9,30.05,NNW,332,9.0,21.0,25,0.00,,,0.00,Wunderground v.1.15,2013-10-03 03:45:00,
2013-10-02 20:50:00,69.3,29.9,30.05,NW,311,9.0,22.0,23,0.00,,,0.00,Wunderground v.1.15,2013-10-03 03:50:00,
2013-10-02 21:00:00,69.3,30.9,30.06,NW,310,11.0,11.0,24,0.00,,,0.00,Wunderground v.1.15,2013-10-03 04:00:00,
2013-10-02 21:05:00,69.3,29.9,30.06,NW,325,9.0,22.0,23,0.00,,,0.00,Wunderground v.1.15,2013-10-03 04:05:00,
2013-10-02 21:10:00,69.3,30.9,30.06,West,271,8.0,8.0,24,0.00,,,0.00,Wunderground v.1.15,2013-10-03 04:10:00,
2013-10-02 21:15:00,69.4,28.9,30.06,NNW,327,7.0,22.0,22,0.00,,,0.00,Wunderground v.1.15,2013-10-03 04:15:00,
2013-10-02 21:20:00,69.3,30.9,30.06,NNW,348,4.0,4.0,24,0.00,,,0.00,Wunderground v.1.15,2013-10-03 04:20:00,
2013-10-02 21:25:00,69.0,33.6,30.06,NNW,329,1.0,20.0,27,0.00,,,0.00,Wunderground v.1.15,2013-10-03 04:25:00,
2013-10-02 21:30:00,67.8,35.2,30.07,ENE,64,0.0,20.0,30,0.00,,,0.00,Wunderground v.1.15,2013-10-03 04:30:00,
2013-10-02 21:35:00,67.0,34.5,30.07,ENE,62,1.0,20.0,30,0.00,,,0.00,Wunderground v.1.15,2013-10-03 04:35:00,
2013-10-02 21:40:00,66.7,35.1,30.07,ENE,62,0.0,20.0,31,0.00,,,0.00,Wunderground v.1.15,2013-10-03 04:40:00,
2013-10-02 21:50:00,66.5,34.9,30.07,NE,54,0.0,17.0,31,0.00,,,0.00,Wunderground v.1.15,2013-10-03 04:50:00,
2013-10-02 21:55:00,66.6,35.0,30.07,NE,39,0.0,17.0,31,0.00,,,0.00,Wunderground v.1.15,2013-10-03 04:55:00,
2013-10-02 22:00:00,66.6,34.2,30.07,NE,39,0.0,17.0,30,0.00,,,0.00,Wunderground v.1.15,2013-10-03 05:00:00,
2013-10-02 22:05:00,66.5,34.1,30.07,NE,39,0.0,17.0,30,0.00,,,0.00,Wunderground v.1.15,2013-10-03 05:05:00,
2013-10-02 22:10:00,66.3,33.1,30.07,NE,39,0.0,17.0,29,0.00,,,0.00,Wunderground v.1.15,2013-10-03 05:10:00,
2013-10-02 22:15:00,65.8,33.5,30.07,North,356,0.0,17.0,30,0.00,,,0.00,Wunderground v.1.15,2013-10-03 05:15:00,
2013-10-02 22:20:00,65.4,33.1,30.07,North,356,0.0,4.0,30,0.00,,,0.00,Wunderground v.1.15,2013-10-03 05:20:00,
2013-10-02 22:30:00,65.9,32.7,30.07,NW,305,3.0,6.0,29,0.00,,,0.00,Wunderground v.1.15,2013-10-03 05:30:00,
2013-10-02 22:35:00,66.5,33.2,30.07,NW,306,5.0,11.0,29,0.00,,,0.00,Wunderground v.1.15,2013-10-03 05:35:00,
2013-10-02 22:45:00,65.8,35.1,30.06,NW,318,4.0,11.0,32,0.00,,,0.00,Wunderground v.1.15,2013-10-03 05:45:00,
2013-10-02 22:50:00,65.4,37.0,30.07,WNW,293,5.0,11.0,35,0.00,,,0.00,Wunderground v.1.15,2013-10-03 05:50:00,
2013-10-02 22:55:00,65.1,37.5,30.07,NNW,331,5.0,11.0,36,0.00,,,0.00,Wunderground v.1.15,2013-10-03 05:55:00,
2013-10-02 23:05:00,64.7,38.5,30.06,WNW,298,3.0,11.0,38,0.00,,,0.00,Wunderground v.1.15,2013-10-03 06:05:00,
2013-10-02 23:10:00,64.7,38.5,30.06,NW,304,2.0,2.0,38,0.00,,,0.00,Wunderground v.1.15,2013-10-03 06:10:00,
2013-10-02 23:20:00,64.2,38.0,30.06,NW,311,1.0,1.0,38,0.00,,,0.00,Wunderground v.1.15,2013-10-03 06:20:00,
2013-10-02 23:25:00,64.1,38.0,30.06,NW,311,0.0,9.0,38,0.00,,,0.00,Wunderground v.1.15,2013-10-03 06:25:00,
2013-10-02 23:30:00,64.0,37.9,30.06,NW,311,0.0,9.0,38,0.00,,,0.00,Wunderground v.1.15,2013-10-03 06:30:00,
2013-10-02 23:40:00,63.5,38.1,30.06,NW,314,2.0,2.0,39,0.00,,,0.00,Wunderground v.1.15,2013-10-03 06:40:00,
2013-10-02 23:45:00,63.5,37.4,30.06,NW,310,2.0,9.0,38,0.00,,,0.00,Wunderground v.1.15,2013-10-03 06:45:00,
2013-10-02 23:50:00,63.3,37.2,30.06,NW,325,1.0,1.0,38,0.00,,,0.00,Wunderground v.1.15,2013-10-03 06:50:00,